TimeCST,TemperatureF,Dew PointF,Humidity,Sea Level PressureIn,VisibilityMPH,Wind Direction,Wind SpeedMPH,Gust SpeedMPH,PrecipitationIn,Events,Conditions,WindDirDegrees,DateUTC
12:53 AM,42.1,37.9,85,30.34,-9999.0,Calm,Calm,-,N/A,,Clear,0,2013-02-01 06:53:00
1:53 AM,41.0,37.9,89,30.34,-9999.0,Calm,Calm,-,N/A,,Clear,0,2013-02-01 07:53:00
2:53 AM,42.1,37.9,85,30.32,-9999.0,Calm,Calm,-,N/A,,Clear,0,2013-02-01 08:53:00
3:53 AM,42.1,37.9,85,30.31,-9999.0,Calm,Calm,-,N/A,,Clear,0,2013-02-01 09:53:00
4:53 AM,41.0,37.9,89,30.32,-9999.0,Calm,Calm,-,N/A,,Clear,0,2013-02-01 10:53:00
5:53 AM,42.1,37.9,85,30.35,10.0,Calm,Calm,-,N/A,,Clear,0,2013-02-01 11:53:00
6:53 AM,42.1,37.0,82,30.38,10.0,NNW,3.5,-,N/A,,Clear,330,2013-02-01 12:53:00
7:53 AM,43.0,37.9,82,30.40,-9999.0,Calm,Calm,-,N/A,,Scattered Clouds,0,2013-02-01 13:53:00
8:53 AM,48.0,37.0,66,30.40,10.0,North,4.6,-,N/A,,Scattered Clouds,360,2013-02-01 14:53:00
9:53 AM,50.0,36.0,59,30.40,10.0,North,9.2,-,N/A,,Scattered Clouds,10,2013-02-01 15:53:00
10:53 AM,54.0,36.0,51,30.39,10.0,North,15.0,-,N/A,,Clear,10,2013-02-01 16:53:00
11:53 AM,59.0,37.0,44,30.38,10.0,NNE,10.4,-,N/A,,Clear,20,2013-02-01 17:53:00
12:53 PM,62.1,34.0,35,30.35,10.0,Calm,Calm,-,N/A,,Clear,0,2013-02-01 18:53:00
1:53 PM,64.0,35.1,34,30.33,-9999.0,Variable,3.5,-,N/A,,Clear,0,2013-02-01 19:53:00
2:53 PM,64.0,36.0,35,30.32,-9999.0,NE,9.2,-,N/A,,Clear,50,2013-02-01 20:53:00
3:53 PM,64.0,35.1,34,30.32,10.0,ENE,4.6,-,N/A,,Clear,60,2013-02-01 21:53:00
4:53 PM,60.1,43.0,53,30.32,-9999.0,Calm,Calm,-,N/A,,Clear,0,2013-02-01 22:53:00
5:53 PM,53.1,45.0,74,30.32,-9999.0,Calm,Calm,-,N/A,,Clear,0,2013-02-01 23:53:00
6:53 PM,48.9,44.1,83,30.33,10.0,Calm,Calm,-,N/A,,Clear,0,2013-02-02 00:53:00
7:53 PM,48.0,43.0,83,30.34,10.0,Calm,Calm,-,N/A,,Clear,0,2013-02-02 01:53:00
8:53 PM,45.0,43.0,93,30.35,10.0,Calm,Calm,-,N/A,,Clear,0,2013-02-02 02:53:00
9:53 PM,46.9,36.0,66,30.35,-9999.0,Calm,Calm,-,N/A,,Clear,0,2013-02-02 03:53:00
10:53 PM,46.0,34.0,63,30.34,-9999.0,ENE,5.8,-,N/A,,Clear,70,2013-02-02 04:53:00
11:53 PM,43.0,33.1,68,30.34,-9999.0,Calm,Calm,-,N/A,,Clear,0,2013-02-02 05:53:00